contact:dominique.lefevre@mio.osupytheas.fr, maurice.libes@osupytheas.fr
Project:EMSO Ligure-ouest http://www.emso-fr.org/EMSO-France
Sensor Aquadopp, line 13 Serial AQD14315 
DOI : "https://doi.org/10.17882/74513; https://doi.org/10.17882/83244" 
Title:EMSO Ligure Ouest : Data ligne ALBATROSS capteur AQUADOPP - deploiement 2021
Id,Date,Profondeur,Latitude,Longitude,X_East,Y_North,Z_Up,Amplitude_X,Amplitude_Y,Amplitude_Z,Batterie,SoundSpeed,Heading,Pitch,Roll,Pressure,Temperature,Speed,Direction
, , m, degrees North, degrees East, m.s-1, m.s-1,m.s-1, 1, 1, 1, Volt, m.s-1, degree, degree, degree, dbar, degree_C, m.s-1, degree
07,2021-11-14T21:30:00,1500.0,42.79,6.0312,-0.08,-0.012,0.0,51.0,51.0,52.0,12.6,1504.0,244.2,-0.5,-0.5,1473.14,13.11,0.08,261.5
07,2021-11-14T22:00:00,1500.0,42.79,6.0312,-0.088,0.006,0.001,52.0,53.0,54.0,12.6,1504.0,252.8,-0.3,-0.6,1473.136,13.11,0.088,273.9
07,2021-11-14T22:30:00,1500.0,42.79,6.0312,-0.092,0.037,0.0,52.0,52.0,52.0,12.7,1504.0,270.6,-1.1,-0.5,1473.138,13.11,0.099,291.9
07,2021-11-14T23:00:00,1500.0,42.79,6.0312,-0.082,0.028,0.005,52.0,51.0,51.0,12.6,1504.0,266.7,-1.5,-0.2,1473.135,13.11,0.086,288.9
07,2021-11-14T23:30:00,1500.0,42.79,6.0312,-0.087,0.023,-0.001,53.0,52.0,53.0,12.6,1504.0,257.2,-0.9,0.1,1473.173,13.11,0.089,284.8
07,2021-11-15T00:00:00,1500.0,42.79,6.0312,-0.089,0.004,0.013,52.0,52.0,52.0,12.6,1504.0,248.3,-0.5,0.1,1473.079,13.11,0.089,272.6
07,2021-11-15T00:30:00,1500.0,42.79,6.0312,-0.088,0.0,0.012,51.0,52.0,50.0,12.6,1504.0,245.9,-1.2,0.0,1473.072,13.11,0.087,270.0
07,2021-11-15T01:00:00,1500.0,42.79,6.0312,-0.087,0.003,-0.006,52.0,52.0,52.0,12.7,1504.0,253.3,-0.6,-0.3,1473.109,13.11,0.087,272.0
07,2021-11-15T01:30:00,1500.0,42.79,6.0312,-0.072,0.015,0.002,53.0,53.0,52.0,12.6,1504.0,260.3,-0.9,-0.3,1473.152,13.11,0.073,281.8
07,2021-11-15T02:00:00,1500.0,42.79,6.0312,-0.081,0.013,0.001,52.0,51.0,52.0,12.7,1504.0,262.0,-1.1,-0.5,1473.175,13.11,0.082,279.1
07,2021-11-15T02:30:00,1500.0,42.79,6.0312,-0.08,0.007,-0.01,52.0,51.0,52.0,12.7,1504.0,263.8,-1.0,-0.4,1473.165,13.11,0.08,275.0
07,2021-11-15T03:00:00,1500.0,42.79,6.0312,-0.084,-0.009,-0.004,51.0,52.0,51.0,12.7,1504.0,253.2,-1.1,-0.3,1473.145,13.11,0.084,263.9
07,2021-11-15T03:30:00,1500.0,42.79,6.0312,-0.082,0.012,0.014,50.0,50.0,49.0,12.6,1504.0,266.8,-0.9,-0.1,1473.171,13.11,0.082,278.3
07,2021-11-15T04:00:00,1500.0,42.79,6.0312,-0.082,-0.021,0.004,50.0,51.0,51.0,12.6,1504.0,260.0,-0.8,-0.4,1473.13,13.11,0.084,255.6
07,2021-11-15T04:30:00,1500.0,42.79,6.0312,-0.076,0.014,0.0,50.0,52.0,50.0,12.7,1504.0,271.8,-0.7,-0.2,1473.084,13.11,0.077,280.4
07,2021-11-15T05:00:00,1500.0,42.79,6.0312,-0.072,-0.021,-0.007,49.0,51.0,51.0,12.6,1504.0,255.0,-0.6,-0.2,1473.045,13.11,0.074,253.7
07,2021-11-15T05:30:00,1500.0,42.79,6.0312,-0.074,-0.009,0.012,51.0,51.0,50.0,12.6,1504.0,258.5,-0.7,-0.3,1473.052,13.11,0.074,263.1
07,2021-11-15T06:00:00,1500.0,42.79,6.0312,-0.067,-0.025,-0.002,50.0,50.0,51.0,12.6,1504.0,251.2,-0.6,-0.4,1473.072,13.11,0.071,249.5
07,2021-11-15T06:30:00,1500.0,42.79,6.0312,-0.074,-0.015,-0.005,51.0,50.0,51.0,12.6,1504.0,253.0,-0.7,-0.3,1473.034,13.11,0.075,258.5
07,2021-11-15T07:00:00,1500.0,42.79,6.0312,-0.069,-0.01,0.003,51.0,51.0,50.0,12.6,1504.0,259.9,-0.9,0.0,1473.056,13.11,0.069,261.8
07,2021-11-15T07:30:00,1500.0,42.79,6.0312,-0.073,0.001,0.005,49.0,52.0,49.0,12.6,1504.0,260.2,-0.5,-0.2,1473.023,13.11,0.073,270.8
07,2021-11-15T08:00:00,1500.0,42.79,6.0312,-0.073,-0.037,-0.015,50.0,50.0,51.0,12.6,1504.0,240.8,-0.4,-0.2,1473.084,13.11,0.081,243.1
07,2021-11-15T08:30:00,1500.0,42.79,6.0312,-0.074,-0.033,0.0,49.0,49.0,50.0,12.6,1504.0,238.7,-0.9,-0.4,1473.051,13.11,0.081,246.0
07,2021-11-15T09:00:00,1500.0,42.79,6.0312,-0.081,0.014,-0.015,50.0,50.0,50.0,12.6,1504.0,266.4,-0.6,0.1,1473.083,13.11,0.082,279.8
07,2021-11-15T09:30:00,1500.0,42.79,6.0312,-0.087,0.005,-0.015,51.0,51.0,50.0,12.6,1504.0,271.7,-0.9,-0.4,1473.088,13.11,0.087,273.3
07,2021-11-15T10:00:00,1500.0,42.79,6.0312,-0.085,-0.023,-0.004,52.0,52.0,52.0,12.6,1504.0,245.1,-0.3,-0.2,1473.086,13.1,0.088,254.9
07,2021-11-15T10:30:00,1500.0,42.79,6.0312,-0.081,-0.042,-0.006,51.0,53.0,52.0,12.6,1504.0,232.8,-0.8,0.1,1473.063,13.1,0.091,242.6
07,2021-11-15T11:00:00,1500.0,42.79,6.0312,-0.096,-0.008,-0.009,50.0,52.0,52.0,12.6,1504.0,260.3,-1.0,-0.3,1473.07,13.11,0.096,265.2
07,2021-11-15T11:30:00,1500.0,42.79,6.0312,-0.096,0.008,-0.015,52.0,52.0,51.0,12.6,1504.0,265.0,-0.8,-0.1,1473.077,13.11,0.096,274.8
07,2021-11-15T12:00:00,1500.0,42.79,6.0312,-0.097,0.007,-0.001,50.0,51.0,52.0,12.6,1504.0,258.3,-0.7,-0.4,1473.066,13.11,0.097,274.1
07,2021-11-15T12:30:00,1500.0,42.79,6.0312,-0.086,0.003,-0.009,51.0,52.0,52.0,12.6,1504.0,259.6,-1.1,-0.3,1473.083,13.11,0.086,272.0
07,2021-11-15T13:00:00,1500.0,42.79,6.0312,-0.092,-0.004,0.003,51.0,52.0,51.0,12.6,1504.0,251.5,-1.2,-0.5,1473.139,13.11,0.092,267.5
07,2021-11-15T13:30:00,1500.0,42.79,6.0312,-0.091,0.018,-0.013,51.0,51.0,51.0,12.6,1504.0,265.0,-0.7,-0.3,1473.191,13.11,0.092,281.2
07,2021-11-15T14:00:00,1500.0,42.79,6.0312,-0.088,0.003,0.011,50.0,49.0,49.0,12.7,1504.0,259.0,-0.6,-0.3,1473.205,13.11,0.088,272.0
07,2021-11-15T14:30:00,1500.0,42.79,6.0312,-0.088,0.014,0.003,48.0,49.0,48.0,12.6,1504.0,262.7,-0.8,-0.3,1473.256,13.11,0.089,279.0
07,2021-11-15T15:00:00,1500.0,42.79,6.0312,-0.077,0.023,-0.005,48.0,48.0,48.0,12.6,1504.0,267.1,-0.9,-0.1,1473.281,13.11,0.08,286.6
07,2021-11-15T15:30:00,1500.0,42.79,6.0312,-0.081,0.013,0.013,47.0,48.0,47.0,12.6,1504.0,259.8,-1.2,-0.4,1473.303,13.11,0.082,279.1
07,2021-11-15T16:00:00,1500.0,42.79,6.0312,-0.084,-0.006,-0.001,47.0,47.0,49.0,12.7,1504.0,247.5,-1.1,-0.3,1473.31,13.11,0.084,265.9
07,2021-11-15T16:30:00,1500.0,42.79,6.0312,-0.092,0.0,-0.016,47.0,48.0,49.0,12.6,1504.0,249.9,-1.1,-0.1,1473.35,13.11,0.092,270.0
07,2021-11-15T17:00:00,1500.0,42.79,6.0312,-0.079,0.004,0.003,46.0,47.0,48.0,12.6,1504.0,255.6,-0.9,-0.4,1473.381,13.11,0.079,272.9
07,2021-11-15T17:30:00,1500.0,42.79,6.0312,-0.079,0.0,0.012,48.0,48.0,49.0,12.6,1504.0,252.7,-0.9,-0.2,1473.333,13.11,0.078,270.0
07,2021-11-15T18:00:00,1500.0,42.79,6.0312,-0.077,0.002,0.0,47.0,48.0,49.0,12.6,1504.0,261.4,-1.1,-0.2,1473.343,13.11,0.077,271.5
07,2021-11-15T18:30:00,1500.0,42.79,6.0312,-0.065,-0.001,0.005,47.0,47.0,46.0,12.6,1504.0,265.6,-1.1,0.0,1473.374,13.11,0.065,269.1
07,2021-11-15T19:00:00,1500.0,42.79,6.0312,-0.074,-0.01,0.015,46.0,46.0,45.0,12.6,1504.0,260.7,-1.2,-0.1,1473.363,13.1,0.074,262.3
07,2021-11-15T19:30:00,1500.0,42.79,6.0312,-0.066,-0.032,-0.011,46.0,47.0,47.0,12.6,1504.0,255.7,-1.2,-0.1,1473.315,13.11,0.073,244.1
07,2021-11-15T20:00:00,1500.0,42.79,6.0312,-0.082,-0.005,0.006,46.0,50.0,46.0,12.6,1504.0,258.5,-0.8,-0.1,1473.285,13.11,0.082,266.5
07,2021-11-15T20:30:00,1500.0,42.79,6.0312,-0.076,-0.018,0.0,45.0,47.0,46.0,12.6,1504.0,262.5,-1.4,-0.5,1473.256,13.1,0.078,256.7
07,2021-11-15T21:00:00,1500.0,42.79,6.0312,-0.076,-0.022,0.007,48.0,48.0,48.0,12.6,1504.0,262.7,-1.2,-0.1,1473.206,13.11,0.079,253.9
